User: anonymous   Login
Location: ??
(35.4032°N, 139.3073°E)
Time: 03:39:17
(UTC+00:00)
Language:

Cosmos 2297 Rocket - Orbit

View from above orbital plane
View from above orbital plane
View from above satellite
View from above satellite

Ground track
Ground track

The orbit data is extracted from the following two-line orbital elements,

1 23405U 94077B   24164.67663187 -.00000011  00000-0  19082-4 0  9999
2 23405  70.9836 248.2811 0001816 348.3828  11.7252 14.15398996526373
Epoch (UTC): 12 June 2024 16:14:20
Eccentricity: 0.0001816
inclination: 70.9836°
perigee height: 839 km
apogee height: 842 km
right ascension of ascending node: 248.2811°
argument of perigee: 348.3828°
revolutions per day: 14.15398996
mean anomaly at epoch: 11.7252°
orbit number at epoch: 52637

The dashed part of the orbit path shows where the satellite is in the earth's shadow,  

DLR